Weather History for Burlington, CO

Change the Weather History Date:

Wednesday, February 27, 2013

  Actual Average Record
Temperature  
Mean Temperature 30 °F 34 °F  
Max Temperature 38 °F 48 °F 77 °F (1904)
Min Temperature 22 °F 21 °F -6 °F (1960)
Degree Days  
Heating Degree Days 35    
Moisture  
Dew Point 20 °F    
Average Humidity 69    
Maximum Humidity 86    
Minimum Humidity 46    
Precipitation  
Precipitation T in 0.02 in 0.75 in (1939)
Month to date precipitation 0.03 0.40  
Year to date precipitation 0.05 0.78  
Sea Level Pressure  
Sea Level Pressure 30.19 in    
Wind  
Wind Speed 19 mph (NNW)    
Max Wind Speed 31 mph    
Max Gust Speed 39 mph    
Visibility 10 miles    
Events Snow    
T = Trace of Precipitation, MM = Missing Value Source: NWS Daily Summary

Daily Weather History Graph

Daily Weather History Graph

Search for Another Location

Airport:

Trip Planner

Search our weather history database for the weather conditions in past years. The results will help you decide how hot, cold, wet, or windy it might be!

Date:

Astronomy

Feb. 27, 2013 Rise Set
Actual Time 6:24 AM MST 5:39 PM MST
Civil Twilight 5:57 AM MST 6:06 PM MST
Nautical Twilight 5:26 AM MST 6:37 PM MST
Astronomical Twilight 4:55 AM MST 7:08 PM MST
Moon 8:02 PM MST (2/27) 7:01 AM MST (2/27)
Length of Visible Light 12h 09m
Length of Day
11h 15m
Waning Gibbous, 96% of the Moon is Illuminated
Feb 27
Waning Gibbous
Mar 4
Last Quarter
Mar 11
New
Mar 19
First Quarter
Mar 27
Full

Hourly Weather History & Observations

Time (MST) Temp. Windchill Dew Point Humidity Pressure Visibility Wind Dir Wind Speed Gust Speed Precip Events Conditions
12:53 AM 27.0 °F 13.9 °F 23.0 °F 85% 30.06 in 10.0 mi NNW 18.4 mph - N/A   Scattered Clouds
1:08 AM 28.4 °F 15.8 °F 24.8 °F 86% 30.01 in 10.0 mi NNW 18.4 mph 24.2 mph N/A   Mostly Cloudy
1:53 AM 28.9 °F 16.5 °F 25.0 °F 85% 30.07 in 10.0 mi North 18.4 mph 28.8 mph N/A   Overcast
2:53 AM 30.0 °F 19.5 °F 26.1 °F 85% 30.08 in 10.0 mi NNW 13.8 mph - N/A   Overcast
3:53 AM 30.9 °F 18.4 °F 25.0 °F 79% 30.09 in 10.0 mi NNW 20.7 mph 29.9 mph N/A   Overcast
4:50 AM 30.2 °F 16.8 °F 24.8 °F 80% 30.07 in 7.0 mi NNW 23.0 mph 29.9 mph 0.00 in Snow Light Snow
4:53 AM 30.0 °F 17.2 °F 25.0 °F 82% 30.12 in 7.0 mi NNW 20.7 mph 29.9 mph 0.00 in Snow Light Snow
5:34 AM 28.4 °F 14.7 °F 24.8 °F 86% 30.08 in 10.0 mi NNW 21.9 mph 29.9 mph 0.00 in   Overcast
5:53 AM 28.0 °F 15.3 °F 24.1 °F 85% 30.16 in 10.0 mi NNW 18.4 mph 27.6 mph 0.00 in   Overcast
6:53 AM 26.1 °F 12.3 °F 21.0 °F 81% 30.21 in 10.0 mi NW 19.6 mph - N/A   Scattered Clouds
7:53 AM 28.0 °F 13.6 °F 19.0 °F 69% 30.24 in 10.0 mi NNW 24.2 mph 28.8 mph N/A   Clear
8:53 AM 30.0 °F 16.0 °F 19.0 °F 64% 30.25 in 10.0 mi NNW 25.3 mph 33.4 mph N/A   Clear
9:53 AM 33.1 °F 19.6 °F 18.0 °F 54% 30.23 in 10.0 mi North 27.6 mph 34.5 mph N/A   Clear
10:53 AM 36.0 °F 24.4 °F 19.9 °F 52% 30.22 in 10.0 mi NNW 23.0 mph 38.0 mph N/A   Partly Cloudy
11:53 AM 36.0 °F 22.8 °F 17.1 °F 46% 30.22 in 10.0 mi NNW 31.1 mph 39.1 mph N/A   Partly Cloudy
12:53 PM 37.0 °F 25.9 °F 18.0 °F 46% 30.22 in 10.0 mi NNW 23.0 mph 34.5 mph N/A   Clear
1:53 PM 37.9 °F 26.8 °F 19.0 °F 47% 30.21 in 10.0 mi NNW 24.2 mph 39.1 mph N/A   Clear
2:53 PM 37.9 °F 26.3 °F 19.0 °F 47% 30.21 in 10.0 mi NW 26.5 mph 33.4 mph N/A   Clear
3:53 PM 37.0 °F 25.9 °F 18.0 °F 46% 30.21 in 10.0 mi NNW 23.0 mph 28.8 mph N/A   Clear
4:53 PM 35.1 °F 25.2 °F 18.0 °F 50% 30.22 in 10.0 mi NNW 16.1 mph 23.0 mph N/A   Clear
5:53 PM 30.9 °F 23.5 °F 19.0 °F 61% 30.25 in 10.0 mi NNW 8.1 mph - N/A   Clear
6:53 PM 26.1 °F 16.8 °F 19.0 °F 75% 30.28 in 10.0 mi NW 9.2 mph - N/A   Clear
7:53 PM 25.0 °F 14.8 °F 18.0 °F 75% 30.27 in 10.0 mi NW 10.4 mph - N/A   Clear
8:53 PM 24.1 °F 13.1 °F 18.0 °F 77% 30.27 in 10.0 mi WNW 11.5 mph - N/A   Clear
9:53 PM 24.1 °F 12.5 °F 17.1 °F 75% 30.27 in 10.0 mi WNW 12.7 mph - N/A   Clear
10:53 PM 23.0 °F 11.1 °F 15.1 °F 72% 30.28 in 10.0 mi WNW 12.7 mph - N/A   Clear
11:53 PM 21.9 °F 9.8 °F 14.0 °F 72% 30.27 in 10.0 mi NW 12.7 mph - N/A   Clear